Location: Bastrop State Park
(30.1090°N, 97.2819°W)
Time: 19:49:48
(UTC-05:00)

Daily predictions for brighter satellites

Satellite Brightness Start Highest point End
(mag) Time Altitude Azimuth Time Altitude Azimuth Time Altitude Azimuth
Cosmos 2369 Rocket 2.5 20:49:19 10° S 20:54:37 43° ESE 20:59:57 10° NE
Delta 2 Rocket 4.2 20:49:36 10° W 20:55:43 63° S 21:02:46 10° ESE
GPS 2-17 Rocket1 4.5 20:53:35 10° SW 20:57:09 23° S 21:00:38 10° SE
COSMOS 2487 2.5 20:56:25 10° NNW 20:59:58 86° WSW 21:03:30 10° SSE
Cosmos 1937 Rocket 3.8 20:55:45 10° SSW 21:00:51 72° WNW 21:06:00 10° N
FUSE 4.3 20:57:30 10° WSW 21:02:35 47° S 21:07:41 10° ESE
SJ-6B 4.0 20:59:27 10° S 21:03:00 42° W 21:06:38 10° NNW
Delta 168 3.2 21:02:00 10° WSW 21:05:03 39° S 21:08:34 12° ESE
Tsikada Rocket 4.0 20:59:48 10° S 21:06:03 84° E 21:12:15 10° N
COSMOS 2455 2.8 21:03:53 10° SSW 21:09:53 85° ESE 21:15:55 10° NNE
Molniya-1 3.4 21:08:26 10° SW 21:10:37 51° WNW 21:12:19 10° NNE
USA 186 1.2 21:11:56 10° SSE 21:14:29 67° ENE 21:17:15 10° N
GPS 2-04 Rocket1 4.0 21:11:12 10° WNW 21:14:42 33° N 21:18:03 10° ENE
Lacrosse 5 rocket 2.3 21:11:38 10° SW 21:15:03 44° NW 21:18:31 10° NNE
Meteor 1-29 4.2 21:14:32 10° NE 21:17:22 23° E 21:19:16 15° SE
Helios 1A 4.1 21:15:29 14° ESE 21:18:13 26° ENE 21:21:44 10° NNE
Aureole 3 4.1 21:17:41 17° ESE 21:18:41 20° E 21:20:56 10° NE
ATLAS 5 CENTAUR R/B 4.4 21:15:35 10° NNE 21:18:42 14° NE 21:21:54 10° ENE
Cosmos 1346 Rocket 3.2 21:15:59 10° N 21:19:48 43° E 21:23:00 14° SSE
Meteor 2-10 Rocket 4.0 21:14:24 10° N 21:20:14 78° W 21:25:57 10° S
Cosmos 2034 Rocket 4.2 21:14:06 10° N 21:20:15 75° W 21:26:22 10° S
OAO 3 Copernicus 4.4 21:19:20 10° WSW 21:24:21 78° NNW 21:29:24 10° ENE
ERS-1 Rocket 4.5 21:23:37 14° E 21:25:55 19° ENE 21:29:26 10° NNE
Cosmos 1939 Rocket 3.3 21:23:47 15° SE 21:27:01 47° ENE 21:31:00 10° N
Cosmos 1634 Rocket 4.4 21:21:29 10° N 21:27:28 44° E 21:32:32 14° SSE
Cosmos 1408 3.8 21:28:17 21° ESE 21:29:26 25° E 21:32:30 10° NE
Cosmos 1933 4.2 21:27:15 10° NNW 21:31:08 49° W 21:35:00 10° SSW
ISS -0.5 21:29:48 10° WNW 21:31:30 13° NW 21:33:13 10° N
Spot 2 Rocket 3.9 21:28:57 10° S 21:33:59 64° WSW 21:39:04 10° NNW
Cosmos 1862 Rocket 4.2 21:30:29 10° NNW 21:34:53 58° W 21:39:16 10° S
Resurs 01 Rocket 2.8 21:34:29 10° S 21:38:39 42° W 21:42:52 10° NNW
Tiangong 2 2.3 21:37:09 10° NW 21:40:07 33° NNE 21:41:25 23° ENE
Hubble Space Telescope 2.8 21:37:37 10° WSW 21:40:16 16° SSW 21:41:57 13° S
CZ-4B DEB 3.6 21:41:38 28° ENE 21:41:41 28° ENE 21:44:14 10° NNE
Cosmos 1825 2.6 21:45:38 32° SE 21:46:42 40° E 21:50:15 10° NNE
Cosmos 1900 4.4 21:43:38 10° NNW 21:48:48 75° ENE 21:51:34 27° SE
Cosmos 2082 Rocket 4.5 21:47:22 10° NW 21:51:26 21° W 21:55:30 10° SSW
Okean 1-7 3.3 21:50:43 10° N 21:55:00 49° E 21:56:17 37° SE
Shenzhou-11 Module 2.0 21:52:48 10° NW 21:55:51 64° NNE 21:56:10 58° ENE
SPOT 5 4.4 21:56:51 22° E 21:57:52 24° ENE 22:02:01 10° NNE
Cosmos 1782 3.1 21:55:40 10° N 21:59:28 43° E 21:59:50 42° E
Milstar 3 3.6 21:45:42 10° WSW 21:59:36 69° S 22:05:32 20° E
Cosmos 2279 Rocket 4.3 21:54:03 10° N 22:00:02 47° E 22:02:33 31° SE
OAO 2 Rocket 3.9 21:56:15 10° W 22:01:03 43° SSW 22:02:43 32° SSE
Envisat 3.8 21:56:13 10° S 22:01:06 49° W 22:06:01 10° NNW
Cosmos 372 Rocket 3.8 21:56:42 10° SSW 22:01:50 87° ESE 22:06:58 10° NNE
CENTAUR R/B 2.9 21:56:38 10° SW 22:02:22 61° WNW 22:08:49 10° NNE
Cosmos 2142 Rocket 4.4 22:03:14 10° N 22:09:23 90° WSW 22:13:21 24° S
Cosmos 468 4.5 22:05:14 10° N 22:10:27 64° ENE 22:11:59 43° SE
Cosmos 1703 Rocket 3.9 22:07:53 10° NNW 22:12:13 61° W 22:14:25 27° SSW
Cosmos 1943 Rocket 2.5 22:07:08 10° SSW 22:12:41 64° WNW 22:18:13 10° NNE
Cosmos 1862 3.6 22:14:36 48° ENE 22:14:36 48° ENE 22:17:59 10° NNE
Cosmos 1733 Rocket 3.8 22:17:38 37° ENE 22:17:38 37° ENE 22:20:53 10° NNE
Cosmos 1125 Rocket 4.3 22:12:15 10° SSW 22:17:21 52° WNW 22:22:28 10° N
Cosmos 1269 Rocket 4.3 22:15:49 10° N 22:20:56 49° ENE 22:21:36 46° E
Helios 1B rocket 4.3 22:18:00 10° N 22:21:36 31° WNW 22:25:13 10° SW
SAR-Lupe-4 3.9 22:26:35 61° W 22:26:35 61° W 22:30:06 10° NNW
Cosmos 2084 3.3 22:22:46 10° NW 22:26:38 73° WSW 22:26:40 73° WSW
Cosmos 1340 3.4 22:23:33 10° N 22:26:25 44° NNE 22:26:25 44° NNE
NOAA 11 4.1 22:26:09 47° SSE 22:27:50 88° ENE 22:33:20 10° NNW
Cosmos 2344 3.7 22:21:36 10° SSW 22:29:21 77° WNW 22:37:25 10° NNE
Nimbus 7 Rocket 4.5 22:24:54 10° NNE 22:30:35 51° E 22:30:55 51° ESE
Lacrosse 4 Rocket 2.5 22:27:17 10° N 22:30:55 35° NE 22:30:55 35° NE
YAOGAN 6 4.5 22:35:04 23° WSW 22:36:05 26° W 22:39:13 10° NW
SL-08 RB Rocket 4.1 22:39:05 53° NE 22:39:05 53° NE 22:43:10 10° N
VEP-3 4.4 14:05:23 10° SW 22:40:41 65° SSW 22:46:12 39° SE
Delta 7925 Rocket 3.8 22:36:17 10° WSW 22:40:13 49° SSW 22:40:13 49° SSW
Cosmos 1606 3.8 22:42:01 10° NNW 22:45:19 41° W 22:45:19 41° W
Cosmos 158 Rocket 3.9 22:45:12 10° NNW 22:50:03 70° WSW 22:50:03 70° WSW
H-2A R/B 2.3 22:51:42 61° ENE 22:51:42 61° ENE 22:56:42 10° N
Cosmos 1833 4.2 22:47:58 10° NNW 22:53:42 70° ENE 22:53:42 70° ENE
GPS 2-04 Rocket1 4.4 22:51:10 10° WNW 22:53:12 29° NW 22:53:12 29° NW
MetOp-B 4.4 22:56:07 55° SW 22:56:46 60° WSW 23:02:04 10° NNW
ATLAS 5 CENTAUR R/B 2.3 22:57:49 10° NNW 23:04:06 86° ENE 23:04:25 81° ESE
ERS-1 Rocket 4.1 23:03:37 34° WSW 23:04:23 36° W 23:09:01 10° NNW
Cosmos 1656 Rocket 4.5 23:06:47 29° WSW 23:09:11 47° WNW 23:14:29 10° N
ARGOS 3.6 23:10:23 53° WSW 23:10:31 54° W 23:15:46 10° NNW
Terra 3.3 23:16:28 29° NNE 23:16:28 29° NNE 23:19:02 10° N
Cosmos 1092 Rocket 3.9 23:16:33 79° W 23:16:34 79° W 23:22:43 10° N
Meteor 1-27 Rocket 4.3 23:14:13 10° NNW 23:19:40 49° W 23:19:50 49° W
BREEZE-M DEB (TANK) 4.3 23:24:46 35° NNE 23:24:46 35° NNE 23:30:31 10° NE
USA 215 3.2 23:25:19 75° NE 23:25:21 75° NE 23:31:54 10° NW
SPOT 5 4.4 23:36:06 34° W 23:36:06 34° W 23:40:28 10° NNW
Cosmos 2227 Rocket 4.1 23:49:13 10° N 23:51:48 20° NNE 23:51:48 20° NNE
